GW1213 Weather Reports


time (UTC)temp
F
wind
direction
speed
knots
gust
knots
rain 1hr
in
rain 24hr
in
rain mn
in
humidity
%
barometer
mb
20260901203539 98 287 0.0 6.1 0.00 0.00 0.00 52 1014.1
20260901203105 98 0 0.9 6.1 0.00 0.00 0.00 53 1014.1
20260901202536 98 223 0.9 5.2 0.00 0.00 0.00 51 1014.2
20260901202038 98 0 0.0 2.6 0.00 0.00 0.00 52 1014.3
20260901201600 98 0 0.0 4.3 0.00 0.00 0.00 53 1014.3
20260901201039 97 298 0.9 4.3 0.00 0.00 0.00 51 1014.3
20260901200537 97 146 0.0 2.6 0.00 0.00 0.00 52 1014.5
20260901200059 97 0 0.0 2.6 0.00 0.00 0.00 51 1014.4
20260901195537 97 222 0.9 2.6 0.00 0.00 0.00 53 1014.4
20260901195036 97 92 0.0 2.6 0.00 0.00 0.00 54 1014.5
20260901194602 97 0 0.0 3.5 0.00 0.00 0.00 52 1014.6
20260901194036 97 280 0.0 3.5 0.00 0.00 0.00 53 1014.8
20260901193536 97 259 0.9 3.5 0.00 0.00 0.00 52 1014.9
20260901193053 97 0 0.0 2.6 0.00 0.00 0.00 54 1015.0
20260901192537 97 0 0.9 2.6 0.00 0.00 0.00 53 1015.1
20260901192038 97 0 0.0 3.5 0.00 0.00 0.00 54 1015.1
20260901191600 96 196 0.9 3.5 0.00 0.00 0.00 54 1015.2
20260901191036 96 238 0.0 2.6 0.00 0.00 0.00 53 1015.3
20260901190537 96 0 0.0 2.6 0.00 0.00 0.00 54 1015.2
20260901190058 96 294 0.9 2.6 0.00 0.00 0.00 56 1015.2
20260901185538 96 267 0.0 4.3 0.00 0.00 0.00 54 1015.2
20260901185037 96 360 0.0 4.3 0.00 0.00 0.00 55 1015.1
20260901184603 96 225 0.9 4.3 0.00 0.00 0.00 52 1015.1
20260901184035 97 0 0.9 5.2 0.00 0.00 0.00 54 1015.0
20260901183537 97 329 0.9 5.2 0.00 0.00 0.00 54 1015.1
20260901183120 96 248 0.0 3.5 0.00 0.00 0.00 52 1015.2
20260901182535 96 0 0.9 3.5 0.00 0.00 0.00 56 1015.2
20260901182035 96 265 0.9 3.5 0.00 0.00 0.00 53 1015.2
20260901181603 95 255 0.0 3.5 0.00 0.00 0.00 57 1015.2
20260901181035 96 0 0.0 3.5 0.00 0.00 0.00 55 1015.3
20260901180536 95 225 0.9 3.5 0.00 0.00 0.00 53 1015.3
20260901180100 96 269 0.9 3.5 0.00 0.00 0.00 53 1015.2
20260901175535 96 259 0.0 1.7 0.00 0.00 0.00 57 1015.2
20260901175037 96 0 0.0 2.6 0.00 0.00 0.00 53 1015.3
20260901174558 96 0 0.9 3.5 0.00 0.00 0.00 54 1015.2
20260901174035 96 204 0.0 3.5 0.00 0.00 0.00 56 1015.3
20260901173539 96 0 0.9 3.5 0.00 0.00 0.00 53 1015.4
20260901173155 95 300 0.0 3.5 0.00 0.00 0.00 56 1015.4
20260901172538 95 0 0.9 3.5 0.00 0.00 0.00 54 1015.4
20260901172035 95 0 0.0 1.7 0.00 0.00 0.00 55 1015.3
20260901171604 95 323 0.0 2.6 0.00 0.00 0.00 55 1015.3
20260901171035 95 214 0.9 2.6 0.00 0.00 0.00 54 1015.2
20260901170536 95 283 0.9 4.3 0.00 0.00 0.00 56 1015.2
20260901165535 95 227 0.9 4.3 0.00 0.00 0.00 56 1015.4
20260901165035 94 269 0.0 3.5 0.00 0.00 0.00 57 1015.5
20260901164557 94 0 0.0 2.6 0.00 0.00 0.00 54 1015.5
20260901164036 94 0 0.0 1.7 0.00 0.00 0.00 57 1015.5
20260901163535 93 0 0.0 0.9 0.00 0.00 0.00 55 1015.6
20260901163119 94 0 0.0 2.6 0.00 0.00 0.00 56 1015.6
20260901162535 94 0 0.0 2.6 0.00 0.00 0.00 57 1015.6
20260901162038 94 0 0.0 3.5 0.00 0.00 0.00 58 1015.7
20260901161609 93 0 0.0 3.5 0.00 0.00 0.00 56 1015.7
20260901161036 93 284 0.9 5.2 0.00 0.00 0.00 58 1015.8
20260901160535 93 0 0.0 5.2 0.00 0.00 0.00 62 1015.8
20260901160058 93 153 0.9 6.1 0.00 0.00 0.00 58 1015.8
20260901155535 92 177 0.9 6.1 0.00 0.00 0.00 59 1015.9
20260901155036 92 184 0.0 5.2 0.00 0.00 0.00 62 1015.9
20260901154559 92 56 1.7 5.2 0.00 0.00 0.00 60 1015.9
20260901154038 92 0 0.0 4.3 0.00 0.00 0.00 59 1016.0
20260901153539 91 188 0.0 3.5 0.00 0.00 0.00 61 1016.1
20260901153110 91 0 0.0 3.5 0.00 0.00 0.00 63 1016.2
20260901152538 90 144 0.0 1.7 0.00 0.00 0.00 67 1016.3
20260901152035 90 0 0.0 0.0 0.00 0.00 0.00 65 1016.3
20260901151602 90 0 0.0 0.0 0.00 0.00 0.00 69 1016.4
20260901151036 90 0 0.0 0.0 0.00 0.00 0.00 69 1016.5
20260901150535 90 0 0.0 0.0 0.00 0.00 0.00 70 1016.5
20260901150107 90 0 0.0 0.0 0.00 0.00 0.00 70 1016.5
20260901145539 89 0 0.0 0.0 0.00 0.00 0.00 68 1016.5
20260901145039 89 0 0.0 1.7 0.00 0.00 0.00 69 1016.6
20260901144607 89 0 0.0 1.7 0.00 0.00 0.00 69 1016.5
20260901144035 89 0 0.0 1.7 0.00 0.00 0.00 69 1016.6
20260901143536 88 0 0.0 0.0 0.00 0.00 0.00 71 1016.6
20260901143108 88 0 0.0 0.0 0.00 0.00 0.00 71 1016.6
20260901142536 87 0 0.0 0.0 0.00 0.00 0.00 71 1016.5
20260901142035 87 0 0.0 0.0 0.00 0.00 0.00 73 1016.5
20260901141607 86 0 0.0 0.0 0.00 0.00 0.00 75 1016.5
20260901141035 85 0 0.0 0.0 0.00 0.00 0.00 76 1016.4
20260901140535 85 0 0.0 0.0 0.00 0.00 0.00 77 1016.4
20260901140058 84 0 0.0 0.0 0.00 0.00 0.00 78 1016.4
20260901135535 84 0 0.0 1.7 0.00 0.00 0.00 78 1016.5
20260901135035 83 0 0.0 2.6 0.00 0.00 0.00 81 1016.6
20260901134556 82 0 0.0 2.6 0.00 0.00 0.00 81 1016.6
20260901134035 81 0 0.0 0.0 0.00 0.00 0.00 85 1016.6
20260901133543 81 0 0.0 0.0 0.00 0.00 0.00 86 1016.8
20260901133106 80 0 0.0 0.0 0.00 0.00 0.00 86 1016.8
20260901132537 80 0 0.0 0.0 0.00 0.00 0.00 86 1016.9
20260901132036 79 0 0.0 0.0 0.00 0.00 0.00 88 1017.0
20260901131558 79 0 0.0 0.0 0.00 0.00 0.00 88 1017.0
20260901131038 79 0 0.0 0.0 0.00 0.00 0.00 90 1017.0
20260901130535 79 0 0.0 0.0 0.00 0.00 0.00 90 1016.9
20260901125535 78 0 0.0 0.0 0.00 0.00 0.00 90 1017.0
20260901125038 78 0 0.0 0.0 0.00 0.00 0.00 90 1016.9
20260901124605 78 0 0.0 0.0 0.00 0.00 0.00 90 1017.0
20260901124035 78 0 0.0 0.0 0.00 0.00 0.00 91 1017.1
20260901123536 78 0 0.0 0.0 0.00 0.00 0.00 91 1017.0
20260901123101 77 0 0.0 0.0 0.00 0.00 0.00 92 1016.9
20260901122536 77 0 0.0 0.0 0.00 0.00 0.00 93 1016.8
20260901122037 77 0 0.0 0.0 0.00 0.00 0.00 94 1016.8
20260901121606 76 0 0.0 0.0 0.00 0.00 0.00 94 1016.9
20260901121037 76 0 0.0 0.0 0.00 0.00 0.00 93 1016.9
20260901120539 76 0 0.0 0.0 0.00 0.00 0.00 93 1016.8
20260901120110 76 0 0.0 0.0 0.00 0.00 0.00 94 1016.7
20260901115535 75 0 0.0 0.0 0.00 0.00 0.00 95 1016.7
20260901115036 75 0 0.0 0.0 0.00 0.00 0.00 95 1016.7
20260901114603 74 0 0.0 0.0 0.00 0.00 0.00 96 1016.7
20260901114035 74 0 0.0 0.0 0.00 0.00 0.00 97 1016.7
20260901113535 74 0 0.0 0.0 0.00 0.00 0.00 97 1016.7
20260901113052 74 0 0.0 0.0 0.00 0.00 0.00 97 1016.6
20260901112539 73 0 0.0 0.0 0.00 0.00 0.00 97 1016.6
20260901112036 73 0 0.0 0.0 0.00 0.00 0.00 97 1016.6
20260901111607 73 0 0.0 0.0 0.00 0.00 0.00 97 1016.5
20260901111036 73 0 0.0 0.0 0.00 0.00 0.00 97 1016.5
20260901110535 73 0 0.0 0.0 0.00 0.00 0.00 97 1016.5
20260901110058 73 0 0.0 0.0 0.00 0.00 0.00 97 1016.4
20260901105536 73 0 0.0 0.0 0.00 0.00 0.00 97 1016.4
20260901105036 73 0 0.0 0.0 0.00 0.00 0.00 96 1016.3
20260901104602 73 0 0.0 0.0 0.00 0.00 0.00 96 1016.4
20260901104038 73 0 0.0 0.0 0.00 0.00 0.00 96 1016.3
20260901103536 73 0 0.0 0.0 0.00 0.00 0.00 96 1016.4
20260901103059 73 0 0.0 0.0 0.00 0.00 0.00 96 1016.4
20260901102535 73 0 0.0 0.0 0.00 0.00 0.00 96 1016.4
20260901102039 73 0 0.0 0.0 0.00 0.00 0.00 96 1016.3
20260901101609 73 0 0.0 0.0 0.00 0.00 0.00 96 1016.4
20260901101036 73 0 0.0 0.0 0.00 0.00 0.00 96 1016.2
20260901100538 73 0 0.0 0.0 0.00 0.00 0.00 96 1016.2
20260901100108 73 0 0.0 0.0 0.00 0.00 0.00 96 1016.2
20260901095535 73 0 0.0 0.0 0.00 0.00 0.00 96 1016.2
20260901095035 73 0 0.0 0.0 0.00 0.00 0.00 96 1016.3
20260901094558 73 0 0.0 0.0 0.00 0.00 0.00 96 1016.2
20260901094035 73 0 0.0 0.0 0.00 0.00 0.00 96 1016.2
20260901093539 73 0 0.0 0.0 0.00 0.00 0.00 96 1016.2
20260901093102 73 0 0.0 0.0 0.00 0.00 0.00 96 1016.2
20260901092535 73 0 0.0 0.0 0.00 0.00 0.00 96 1016.3
20260901092036 73 0 0.0 0.0 0.00 0.00 0.00 96 1016.3
20260901091606 73 0 0.0 0.0 0.00 0.00 0.00 96 1016.2
20260901091035 73 0 0.0 0.0 0.00 0.00 0.00 96 1016.2
20260901090535 73 0 0.0 0.0 0.00 0.00 0.00 96 1016.3
20260901085535 73 0 0.0 0.0 0.00 0.00 0.00 96 1016.2
20260901085040 73 0 0.0 0.0 0.00 0.00 0.00 96 1016.2
20260901084622 73 0 0.0 0.0 0.00 0.00 0.00 96 1016.2
20260901084037 73 0 0.0 0.0 0.00 0.00 0.00 96 1016.2
20260901083541 74 0 0.0 0.0 0.00 0.00 0.00 96 1016.2
20260901083100 74 0 0.0 0.0 0.00 0.00 0.00 96 1016.3
20260901082537 74 0 0.0 0.0 0.00 0.00 0.00 96 1016.2
20260901082038 74 0 0.0 0.0 0.00 0.00 0.00 96 1016.2
20260901081600 74 0 0.0 0.0 0.00 0.00 0.00 96 1016.2
20260901081037 74 0 0.0 0.0 0.00 0.00 0.00 96 1016.2
20260901080536 74 0 0.0 0.0 0.00 0.00 0.00 96 1016.3
20260901080113 74 0 0.0 0.0 0.00 0.00 0.00 96 1016.3
20260901075536 74 0 0.0 0.0 0.00 0.00 0.00 96 1016.3
20260901075036 74 0 0.0 0.0 0.00 0.00 0.00 96 1016.4
20260901074621 74 0 0.0 0.0 0.00 0.00 0.00 96 1016.5
20260901074041 74 0 0.0 0.0 0.00 0.00 0.00 96 1016.6
20260901073536 74 0 0.0 0.0 0.00 0.00 0.00 95 1016.6
20260901073100 74 0 0.0 0.0 0.00 0.00 0.00 95 1016.7
20260901072538 74 0 0.0 0.0 0.00 0.00 0.00 95 1016.6
20260901072041 74 0 0.0 0.0 0.00 0.00 0.00 95 1016.5
20260901071607 74 0 0.0 0.0 0.00 0.00 0.00 95 1016.5
20260901071037 74 0 0.0 0.0 0.00 0.00 0.00 95 1016.5
20260901070538 74 0 0.0 0.0 0.00 0.00 0.00 95 1016.6
20260901065535 75 0 0.0 0.0 0.00 0.00 0.00 95 1016.7
20260901065037 75 0 0.0 0.0 0.00 0.00 0.00 95 1016.7
20260901064603 75 0 0.0 0.0 0.00 0.00 0.00 95 1016.7
20260901064035 75 0 0.0 0.0 0.00 0.00 0.00 95 1016.7
20260901063535 75 0 0.0 0.0 0.00 0.00 0.00 95 1016.8
20260901063105 75 0 0.0 0.0 0.00 0.00 0.00 95 1016.8
20260901062536 75 0 0.0 0.0 0.00 0.00 0.00 95 1016.8
20260901062038 75 0 0.0 0.0 0.00 0.00 0.00 95 1016.9
20260901061559 75 0 0.0 0.0 0.00 0.00 0.00 95 1017.1
20260901061036 75 0 0.0 0.0 0.00 0.00 0.00 95 1017.1
20260901060536 75 0 0.0 0.0 0.00 0.00 0.00 95 1017.1
20260901060101 75 0 0.0 0.0 0.00 0.00 0.00 95 1017.1
20260901055535 75 0 0.0 0.0 0.00 0.00 0.00 95 1017.2
20260901055036 75 0 0.0 0.0 0.00 0.00 0.00 95 1017.2
20260901054557 75 0 0.0 0.0 0.00 0.00 0.00 95 1017.3
20260901054036 75 0 0.0 0.0 0.00 0.00 0.00 95 1017.3
20260901053538 75 0 0.0 0.0 0.00 0.00 0.00 95 1017.3
20260901053107 75 0 0.0 0.0 0.00 0.00 0.00 95 1017.3
20260901052537 75 0 0.0 0.0 0.00 0.00 0.00 95 1017.3
20260901052037 75 0 0.0 0.0 0.00 0.00 0.00 95 1017.4
20260901051606 75 0 0.0 0.0 0.00 0.00 0.00 95 1017.4
20260901051038 75 0 0.0 0.0 0.00 0.00 0.00 95 1017.5
20260901050542 75 0 0.0 0.0 0.00 0.00 0.00 94 1017.5
20260901050100 75 0 0.0 0.0 0.00 0.00 0.00 94 1017.5
20260901045536 75 0 0.0 0.0 0.00 0.00 0.00 94 1017.6
20260901045037 75 0 0.0 0.0 0.00 0.00 0.00 94 1017.7
20260901044607 75 0 0.0 0.0 0.00 0.00 0.00 94 1017.7
20260901044037 75 0 0.0 0.0 0.00 0.00 0.00 94 1017.7
20260901043536 75 0 0.0 0.0 0.00 0.00 0.00 94 1017.8
20260901043109 75 0 0.0 0.0 0.00 0.00 0.00 94 1017.7
20260901042538 75 0 0.0 0.0 0.00 0.00 0.00 94 1017.7
20260901042037 75 0 0.0 0.0 0.00 0.00 0.00 94 1017.7
20260901041619 75 0 0.0 0.0 0.00 0.00 0.00 94 1017.8
20260901041040 75 0 0.0 0.0 0.00 0.00 0.00 93 1017.7
20260901040538 75 0 0.0 0.0 0.00 0.00 0.00 93 1017.7
20260901040136 75 0 0.0 0.0 0.00 0.00 0.00 93 1017.7
20260901035538 76 0 0.0 0.0 0.00 0.00 0.00 93 1017.7
20260901035040 76 0 0.0 0.0 0.00 0.00 0.00 93 1017.8
20260901034552 76 0 0.0 0.0 0.00 0.00 0.00 93 1017.7
20260901034038 76 0 0.0 0.0 0.00 0.00 0.00 93 1017.7
20260901033538 76 0 0.0 0.0 0.00 0.00 0.00 93 1017.7
20260901033101 76 0 0.0 0.0 0.00 0.00 0.00 93 1017.7
20260901032536 76 0 0.0 0.0 0.00 0.00 0.00 92 1017.6
20260901032040 76 0 0.0 0.0 0.00 0.00 0.00 92 1017.6
20260901031602 76 0 0.0 0.0 0.00 0.00 0.00 92 1017.5
20260901031038 76 0 0.0 0.0 0.00 0.00 0.00 92 1017.5
20260901030537 77 0 0.0 0.0 0.00 0.00 0.00 92 1017.6
20260901030110 77 0 0.0 0.0 0.00 0.00 0.00 91 1017.5
20260901025538 77 0 0.0 0.0 0.00 0.00 0.00 91 1017.6
20260901025037 77 0 0.0 0.0 0.00 0.00 0.00 91 1017.6
20260901024607 77 0 0.0 0.0 0.00 0.00 0.00 91 1017.5
20260901024039 77 0 0.0 0.0 0.00 0.00 0.00 91 1017.5
20260901023536 78 0 0.0 0.0 0.00 0.00 0.00 90 1017.4
20260901023105 78 0 0.0 0.0 0.00 0.00 0.00 90 1017.5
20260901022535 78 0 0.0 0.0 0.00 0.00 0.00 90 1017.5
20260901022038 78 0 0.0 0.0 0.00 0.00 0.00 90 1017.5
20260901021600 78 0 0.0 0.0 0.00 0.00 0.00 89 1017.5
20260901021038 78 0 0.0 0.0 0.00 0.00 0.00 88 1017.6
20260901020536 78 0 0.0 0.0 0.00 0.00 0.00 88 1017.5
20260901020057 79 0 0.0 0.0 0.00 0.00 0.00 87 1017.5
20260901015535 79 0 0.0 0.0 0.00 0.00 0.00 88 1017.5
20260901015036 79 0 0.0 0.0 0.00 0.00 0.00 88 1017.6
20260901014606 79 0 0.0 0.0 0.00 0.00 0.00 88 1017.5
20260901014036 79 0 0.0 0.0 0.00 0.00 0.00 87 1017.6
20260901013536 79 0 0.0 0.0 0.00 0.00 0.00 87 1017.4
20260901013102 79 0 0.0 0.0 0.00 0.00 0.00 86 1017.5
20260901012536 79 0 0.0 0.0 0.00 0.00 0.00 86 1017.2
20260901012035 80 0 0.0 0.0 0.00 0.00 0.00 86 1017.3
20260901011558 80 0 0.0 0.0 0.00 0.00 0.00 86 1017.2
20260901011037 80 0 0.0 0.0 0.00 0.00 0.00 85 1017.2
20260901010535 80 0 0.0 0.0 0.00 0.00 0.00 85 1017.2
20260901010116 80 0 0.0 0.0 0.00 0.00 0.00 85 1017.3
20260901005535 80 0 0.0 0.0 0.00 0.00 0.00 86 1017.2
20260901005038 80 0 0.0 0.0 0.00 0.00 0.00 84 1017.1
20260901004603 80 0 0.0 0.0 0.00 0.00 0.00 84 1017.1
20260901004037 80 0 0.0 0.0 0.00 0.00 0.00 85 1017.1
20260901003539 80 0 0.0 0.0 0.00 0.00 0.00 84 1017.1
20260901003059 80 0 0.0 0.0 0.00 0.00 0.00 84 1017.0
20260901002538 81 0 0.0 0.0 0.00 0.00 0.00 84 1017.0
20260901002038 81 0 0.0 0.0 0.00 0.00 0.00 85 1017.1
20260901001559 81 0 0.0 0.0 0.00 0.00 0.00 84 1017.0
20260901001041 81 0 0.0 0.0 0.00 0.00 0.00 83 1017.0
20260901000537 81 0 0.0 0.0 0.00 0.00 0.00 82 1017.0
20260901000058 81 0 0.0 0.0 0.00 0.00 0.00 84 1017.0
20260831235537 81 0 0.0 0.0 0.00 0.00 0.00 83 1016.8
20260831235038 82 0 0.0 0.0 0.00 0.00 0.00 83 1017.0
20260831234604 82 0 0.0 0.0 0.00 0.00 0.00 84 1016.9
20260831234038 82 0 0.0 0.0 0.00 0.00 0.00 83 1017.0
20260831233539 82 0 0.0 0.0 0.00 0.00 0.00 82 1017.1
20260831233116 82 0 0.0 0.0 0.00 0.00 0.00 81 1017.1
20260831232535 83 0 0.0 0.0 0.00 0.00 0.00 81 1017.1
20260831232037 83 0 0.0 0.0 0.00 0.00 0.00 82 1017.2
20260831231559 83 0 0.0 0.0 0.00 0.00 0.00 82 1017.2
20260831231040 83 0 0.0 0.0 0.00 0.00 0.00 80 1017.2
20260831230537 83 0 0.0 0.0 0.00 0.00 0.00 79 1017.3
20260831230114 83 0 0.0 0.0 0.00 0.00 0.00 80 1017.4
20260831225535 83 0 0.0 0.0 0.00 0.00 0.00 79 1017.3
20260831225040 83 0 0.0 0.0 0.00 0.00 0.00 77 1017.3
20260831224602 83 0 0.0 0.0 0.00 0.00 0.00 78 1017.4
20260831224040 83 0 0.0 0.0 0.00 0.00 0.00 77 1017.4
20260831223540 84 0 0.0 0.0 0.00 0.00 0.00 79 1017.4
20260831223109 84 0 0.0 0.0 0.00 0.00 0.00 81 1017.4
20260831222536 84 0 0.0 0.0 0.00 0.00 0.00 80 1017.3
20260831222038 85 0 0.0 0.0 0.00 0.00 0.00 79 1017.4
20260831221601 85 0 0.0 0.0 0.00 0.00 0.00 77 1017.4
20260831221037 85 0 0.0 0.0 0.00 0.00 0.00 74 1017.4
20260831220536 85 0 0.0 0.0 0.00 0.00 0.00 75 1017.5
20260831220053 85 0 0.0 0.0 0.00 0.00 0.00 75 1017.6
20260831215538 86 0 0.0 0.0 0.00 0.00 0.00 74 1017.6
20260831215036 86 0 0.0 0.0 0.00 0.00 0.00 73 1017.4
20260831214610 86 0 0.0 0.0 0.00 0.00 0.00 71 1017.3
20260831214037 86 0 0.0 0.0 0.00 0.00 0.00 71 1017.3
20260831213534 86 0 0.0 0.0 0.00 0.00 0.00 72 1017.2
20260831213059 86 0 0.0 0.0 0.00 0.00 0.00 71 1017.3
20260831212538 86 0 0.0 0.0 0.00 0.00 0.00 71 1017.3
20260831212036 86 0 0.0 0.0 0.00 0.00 0.00 71 1017.2
20260831211557 86 0 0.0 0.0 0.00 0.00 0.00 70 1017.2
20260831211037 87 0 0.0 0.9 0.00 0.00 0.00 69 1017.2
20260831210537 87 0 0.0 0.9 0.00 0.00 0.00 70 1017.2
20260831210103 88 0 0.0 1.7 0.00 0.00 0.00 68 1017.2
20260831205536 88 0 0.0 1.7 0.00 0.00 0.00 69 1017.2
20260831205036 88 0 0.0 0.9 0.00 0.00 0.00 69 1017.2
20260831204608 88 0 0.0 0.0 0.00 0.00 0.00 69 1017.2
20260831204039 88 0 0.0 0.0 0.00 0.00 0.00 69 1017.2